Location: Sungai Apap
(2.6167°N, 113.3833°E)
Time: 15:01:45
(UTC+00:00)

Cosmos 1934 Rocket - Pass Details

Date: 25 May 2024
Orbit: 938 x 998 km, 83.0° (Epoch: 11 June)

Event Time Altitude Azimuth Distance (km) Brightness Sun altitude
Rises 21:13:48 0° 183° (S) 3,604 6.7 -15.2°
Reaches altitude 10° 21:16:17 10° 183° (S) 2,663 6.0 -14.7°
Maximum altitude 21:22:22 90° 256° (WSW) 957 4.0 -13.3°
Drops below altitude 10° 21:28:32 10° 3° (N) 2,692 6.7 -11.8°
Sets 21:31:02 0° 3° (N) 3,645 7.4 -11.2°
